Location: ??????????
(42.1626°N, 44.1160°E)
Time: 11:15:43
(UTC+00:00)

H-2A R/B - Pass Details

Date: 03 March 2021
Orbit: 578 x 654 km, 98.5° (Epoch: 21 April)

Event Time Altitude Azimuth Distance (km) Brightness Sun altitude
Rises 15:18:17 0° 5° (N) 2,804 5.3 -4.9°
Reaches altitude 10° 15:20:32 10° 357° (N) 1,899 4.6 -5.4°
Maximum altitude 15:24:19 38° 290° (WNW) 900 3.6 -6.1°
Drops below altitude 10° 15:28:07 10° 222° (SW) 1,897 5.3 -6.8°
Sets 15:30:22 0° 214° (SW) 2,800 6.0 -7.2°
